CDT,Max TemperatureF,Mean TemperatureF,Min TemperatureF,Max Dew PointF,MeanDew PointF,Min DewpointF,Max Humidity, Mean Humidity, Min Humidity, Max Sea Level PressureIn, Mean Sea Level PressureIn, Min Sea Level PressureIn, Max VisibilityMiles, Mean VisibilityMiles, Min VisibilityMiles, Max Wind SpeedMPH, Mean Wind SpeedMPH, Max Gust SpeedMPH,PrecipitationIn, CloudCover, Events, WindDirDegrees
2013-4-1,77,65,53,61,54,46,100,68,36,30.12,30.03,29.96,10,4,0,10,2,13,0.00,3,Fog,38
2013-4-2,78,65,52,62,54,50,93,70,47,30.09,30.03,29.95,10,10,10,16,6,23,T,1,Rain,102
2013-4-3,60,53,46,49,46,44,93,77,60,30.11,30.00,29.91,10,9,2,22,10,30,0.67,8,Rain,21
2013-4-4,50,48,45,45,44,43,100,90,80,30.13,30.05,29.98,10,9,3,17,10,23,T,8,,320
2013-4-5,73,57,41,47,43,39,100,66,31,30.22,30.15,30.09,10,10,6,13,4,18,0.00,1,,327
2013-4-6,75,60,44,53,49,44,100,72,43,30.13,30.07,29.99,10,10,5,18,8,22,0.00,0,,164
2013-4-7,79,67,54,60,57,53,93,72,50,30.06,29.99,29.91,10,10,8,17,8,22,0.00,5,,159
2013-4-8,80,70,59,64,62,59,100,77,54,29.94,29.91,29.86,10,10,10,22,10,28,0.00,4,,158
2013-4-9,81,74,66,70,68,63,100,85,69,29.91,29.87,29.81,10,9,5,22,12,30,T,7,,152
2013-4-10,83,68,52,72,67,53,87,76,65,29.87,29.80,29.73,10,10,5,22,12,30,0.19,7,Rain,171
2013-4-11,61,54,46,52,48,45,100,78,55,29.89,29.80,29.73,10,7,2,21,8,25,1.29,6,Rain-Thunderstorm,318
2013-4-12,75,58,41,50,44,39,100,65,29,30.03,29.93,29.87,10,5,0,10,1,14,0.00,2,Fog,332
2013-4-13,80,64,47,52,49,42,100,65,29,30.04,29.95,29.83,10,10,4,15,5,21,0.00,0,,100
2013-4-14,78,68,58,63,59,51,100,78,56,29.82,29.77,29.71,10,10,9,24,7,31,0.01,5,Rain-Thunderstorm,144
2013-4-15,88,74,60,72,66,60,100,75,50,29.91,29.84,29.77,10,9,4,16,8,22,0.00,5,,151
2013-4-16,81,77,73,73,72,71,100,87,74,30.03,29.97,29.90,10,9,4,16,9,22,T,7,Rain,155
2013-4-17,87,80,72,72,71,68,93,75,57,30.03,29.96,29.85,10,9,7,22,11,32,0.00,6,,141
2013-4-18,84,67,50,72,62,46,87,76,65,30.01,29.82,29.70,10,8,1,22,14,30,0.58,8,Rain-Thunderstorm,260
2013-4-19,61,52,43,46,37,30,86,61,36,30.22,30.13,30.01,10,10,10,24,11,33,0.00,1,,324
2013-4-20,71,54,37,46,39,33,100,66,31,30.27,30.21,30.12,10,10,5,14,3,18,0.00,0,,95
2013-4-21,74,59,44,48,43,38,100,65,29,30.25,30.18,30.11,10,10,9,15,4,21,0.00,0,,96
2013-4-22,79,62,45,52,49,44,100,68,35,30.14,30.08,29.98,10,10,5,13,4,20,0.00,0,,130
2013-4-23,85,71,57,67,62,53,93,74,55,30.03,29.98,29.91,10,9,4,16,8,23,T,5,,157
2013-4-24,71,60,49,70,54,46,93,77,60,30.27,30.10,29.94,10,8,2,28,10,33,0.44,6,Rain-Thunderstorm,355
2013-4-25,71,60,48,49,43,35,93,60,27,30.36,30.29,30.25,10,10,10,17,6,24,0.00,3,,54
2013-4-26,77,64,51,67,58,49,96,79,61,30.27,30.21,30.13,10,10,9,14,5,17,0.00,5,,166
2013-4-27,83,74,65,68,66,61,100,77,54,30.15,30.09,29.98,10,9,3,20,8,24,0.00,4,,181
2013-4-28,81,71,61,67,65,62,100,79,58,30.02,29.98,29.91,10,8,2,13,5,17,0.01,1,Rain,206
2013-4-29,86,73,59,66,61,52,100,77,54,29.99,29.93,29.86,10,4,0,9,3,13,0.00,1,Fog,138
2013-4-30,80,69,58,68,64,59,100,84,67,29.89,29.86,29.80,10,9,6,14,6,18,0.01,4,Rain-Thunderstorm,103